Location: Caltech
(34.1382°N, 118.1253°W)
Time: 13:53:51
(UTC-07:00)

FO-29 - Visible Passes

Search period start: 26 June 2017 00:00
Search period end: 06 July 2017 00:00
Orbit: 801 x 1321 km, 98.6° (Epoch: 26 June)

Date Brightness Start Highest point End Pass type
(mag) Time Alt. Az. Time Alt. Az. Time Alt. Az.
26 Jun 11.4 21:10:26 10° NE 21:15:14 17° E 21:17:56 14° ESE visible
26 Jun 10.1 22:52:58 10° N 23:00:52 82° WNW 23:04:25 37° SSW visible
27 Jun 12.3 00:40:31 10° NNW 00:44:39 15° WNW 00:48:46 10° W visible
27 Jun 10.5 21:58:27 10° NNE 22:05:50 42° E 22:08:43 31° SE visible
27 Jun 11.2 23:43:32 10° N 23:50:35 37° WNW 23:55:11 20° WSW visible
28 Jun 11.5 21:05:55 10° NE 21:10:17 16° E 21:13:00 13° ESE visible
28 Jun 10.0 22:48:05 10° NNE 22:56:02 87° WNW 22:59:29 38° SSW visible
29 Jun 12.2 00:35:24 10° NNW 00:39:51 16° WNW 00:44:15 10° W visible
29 Jun 10.6 21:53:40 10° NNE 22:00:56 39° E 22:03:46 30° SE visible
29 Jun 11.1 23:38:37 10° N 23:45:45 40° WNW 23:50:15 21° WSW visible
30 Jun 11.5 21:01:29 10° ENE 21:05:19 14° E 21:08:02 12° ESE visible
30 Jun 10.0 22:43:14 10° NNE 22:51:10 89° ESE 22:54:32 38° SSW visible
01 Jul 12.2 00:30:19 10° NNW 00:35:02 18° WNW 00:39:42 10° W visible
01 Jul 10.6 21:48:55 10° NNE 21:56:02 37° E 21:58:48 28° SE visible
01 Jul 11.0 23:33:41 10° N 23:40:56 42° WNW 23:45:17 22° SW visible
02 Jul 11.6 20:57:10 10° ENE 21:00:21 13° E 21:03:04 11° ESE visible
02 Jul 10.0 22:38:23 10° NNE 22:46:18 84° ESE 22:49:33 39° S visible
03 Jul 12.1 00:25:16 10° NNW 00:30:14 19° WNW 00:35:06 10° W visible
03 Jul 10.7 21:44:10 10° NNE 21:51:07 34° E 21:53:48 27° SE visible
03 Jul 10.9 23:28:47 10° N 23:36:05 45° WNW 23:40:17 24° SW visible
04 Jul 11.6 20:53:04 10° ENE 20:55:22 11° E 20:57:37 10° ESE visible
04 Jul 9.9 22:33:33 10° NNE 22:41:26 79° ESE 22:44:32 40° S visible
05 Jul 12.0 00:20:14 10° NNW 00:25:25 20° WNW 00:30:27 10° WSW visible
05 Jul 10.8 21:39:27 10° NE 21:46:11 31° E 21:48:47 25° SE visible
05 Jul 10.8 23:23:52 10° N 23:31:15 47° WNW 23:35:16 25° SW visible
